Weather in Tatabánya

Hungary     47°34′34″N   18°24′13″E
temp.,
°C
wind,
m/s
gust,
m/s
humid.,
%
clouds,
%
prec.,
mm/h
press.,
hPa
HPBL,
m
14 june, mon
mon1423:00+12nnw513700 0.0 1021510
02:00+9nw411790 0.0 1022356
05:00+7nw36930 0.0 1021147
08:00+12nw46723 0.0 1022375
11:00+18n56530 0.0 10211487
14:00+19nnw4646100 0.0 10201901
17:00+21n344357 0.0 10191918
20:00+17nw22655 0.0 101915
15 june, tue
tue1523:00+13sse22740 0.0 102016
02:00+11sse22785 0.0 102016
05:00+11w11810 0.0 101910
08:00+16nw11662 0.0 1020265
11:00+21nw2251100 0.0 1019992
14:00+23nw32445 0.0 10181556
17:00+23nw3442100 0.0 10171493
20:00+19nw2261100 0.0 101611
16 june, wed
wed1623:00+16nw2269100 0.0 101711
02:00+16wnw2277100 0.0 101618
05:00+14nnw118651 0.0 101711
08:00+19ese236798 0.0 1018324
11:00+23se335221 0.0 1018985
14:00+25ese22455 0.0 10171524
17:00+26e124218 0.0 10171624
20:00+22sse11593 0.0 101611
17 june, thu
thu1723:00+18ese11695 0.0 101811
02:00+17nnw11710 0.0 101811
05:00+16ese11750 0.0 101811
08:00+21se22620 0.0 1019267
11:00+25e23500 0.0 10181256
14:00+27se33410 0.0 10181989
17:00+27sse34434 0.0 10171720
20:00+23s11625 0.0 101711
18 june, fri
fri1823:00+19ese11705 0.0 101811
02:00+18ese22785 0.0 101714
05:00+17se22840 0.0 101715
08:00+22ese36690 0.0 1017380
11:00+26se455428 0.0 10171080
14:00+28se334677 0.0 10161919
17:00+29se33436 0.0 10151774
20:00+24ese116127 0.0 101511